Hourly Data Report for October 02, 2015

All times are specified in Local Standard Time (LST). Add 1 hour to adjust for Daylight Saving Time where and when it is observed.

CLYDE RIVER A
NUNAVUT

70°29'09.000" N
68°31'01.000" W
26.50 m
2400804
71090
YCY

Download Data

Hourly Data (October 2015)
Hourly Data Report for October 2, 2015
Temp Definition
°C
Dew Point Temp Definition
°C
Rel Hum Definition
%
Wind Dir Definition
10's deg

Wind Spd Definition
km/h
Visibility Definition
km
Stn Press Definition
kPa
Hmdx Definition


Wind Chill Definition


Weather Definition


TIME
00:00 Legend Double Dagger 3.4 -1.0 73 21 43 16.1 99.44     LegendNANA
01:00 Legend Double Dagger 3.1 -1.4 72 23 43 16.1 99.45     LegendNANA
02:00 Legend Double Dagger 2.7 -1.1 76 21 46 16.1 99.43     LegendNANA
03:00 Legend Double Dagger 2.9 -2.9 66 21 52 16.1 99.49     LegendNANA
04:00 Legend Double Dagger 2.1 -5.0 60 24 39 16.1 99.44     LegendNANA
05:00 Legend Double Dagger 1.8 -6.5 54 25 48 16.1 99.47     LegendNANA
06:00 Legend Double Dagger 1.6 -6.5 55 24 32 16.1 99.61     LegendNANA
07:00 Legend Double Dagger 2.0 -7.4 50 23 30 16.1 99.74     LegendNANA
08:00 Legend Double Dagger 1.6 -7.5 51 27 37 16.1 99.78     LegendNANA
09:00 Legend Double Dagger 1.8 -7.3 51 24 32 16.1 99.96     LegendNANA
10:00 Legend Double Dagger 2.6 -7.7 47 26 43 16.1 100.09     LegendNANA
11:00 Legend Double Dagger 2.5 -7.9 46 29 28 16.1 100.29     LegendNANA
12:00 Legend Double Dagger 2.4 -7.5 48 29 34 16.1 100.40     LegendNANA
13:00 Legend Double Dagger 3.1 -10.1 38 28 46 16.1 100.53     LegendNANA
14:00 Legend Double Dagger 2.7 -9.6 40 28 37 16.1 100.71     LegendNANA
15:00 Legend Double Dagger 1.9 -10.0 41 27 39 16.1 100.84     LegendNANA
16:00 Legend Double Dagger 1.0 -9.5 46 27 39 16.1 100.93     LegendNANA
17:00 Legend Double Dagger 0.3 -8.9 50 26 37 16.1 101.01     LegendNANA
18:00 Legend Double Dagger -0.3 -7.4 59 26 30 16.1 101.08   -7 LegendNANA
19:00 Legend Double Dagger -0.9 -6.9 64 27 17 16.1 101.16   -6 LegendNANA
20:00 Legend Double Dagger -1.7 -6.8 68 26 18 16.1 101.22   -7 LegendNANA
21:00 Legend Double Dagger -2.5 -7.7 68 25 15 16.1 101.27   -7 LegendNANA
22:00 Legend Double Dagger -2.2 -9.0 60 25 5 16.1 101.35   -4 LegendNANA
23:00 Legend Double Dagger -2.2 -10.1 55 23 8 16.1 101.42   -5 LegendNANA

Notes on Data Quality.

Legend

  • E = Estimated
  • M = Missing
  • NA = Not Available
  • ‡ = Partner data that is not subject to review by the National Climate Archives
Date modified: